カタログに戻る

ARIANE 44LP DEB

運用中HEO
NORAD 25844·DEBRIS·🇫🇷 France

打ち上げ Aug 8, 1989 から Guiana Space Centre

Loading…

次のパス (今後24時間)

TLE

最新Source: Space-Track

元期: Sep 12, 2026, 08:03 UTC

1 25844U 89062H   26255.33606272  .00002111  00000-0  28306-2 0  9993
2 25844   7.6806 312.8438 6541657 316.7215   7.4797  3.17107416286594

AllMySatでARIANE 44LP DEBをリアルタイム追跡

Download on the App Store